Погода в Куприяновке

Россия / Амурская область     49°57′31″N   129°19′56″E
темп.,
°C
ветер,
м/с
пор.,
м/с
влажн.,
%
обл.,
%
осадки,
мм/ч
давл.,
гПа
погр.,
м
9 мая, вс
вс900:00+5в4784100 0.0 1001397
03:00+5всв4692100 0.1 1000487
06:00+5св5788100 0.4 1002452
09:00+6св4787100 0.9 1003791
12:00+6св4689100 0.9 1005801
15:00+6ссв3387100 2.0 1005358
18:00+7ссз3586100 0.1 1007355
21:00+5сз3594100 0.1 1008142
10 мая, пн
пн1000:00+5ссз2493100 0.0 1009141
03:00+6ссз2595100 0.9 1009169
06:00+6ссз2493100 1.6 1010146
09:00+6сз1292100 3.0 1011120
12:00+8з2381100 0.4 1012472
15:00+10з2369100 0.4 1012837
18:00+11з226497 0.0 1012863
21:00+7ююз3382100 0.0 101437
11 мая, вт
вт1100:00+6ююз2388100 0.0 101549
03:00+5ю228990 0.0 101518
06:00+5ююв358941 0.0 1016132
09:00+11ююв456513 0.0 1015574
12:00+15ююв665060 0.0 10141369
15:00+16ююв7745100 0.0 10121562
18:00+15юв81055100 0.0 1010837
21:00+12юв91761100 0.0 1010596
12 мая, ср
ср1200:00+10ююв81770100 0.0 1009538
03:00+10ююв91870100 0.0 1006658
06:00+10юв111873100 0.3 1004620
09:00+10ююв112079100 3.0 10011485
12:00+10ююв101784100 2.8 10001178
15:00+10ююв101584100 3.4 998925
18:00+13ю81265100 2.6 9961256
21:00+8ююз41090100 6.6 997669
13 мая, чт
чт1300:00+8юз5984100 0.3 998415
03:00+8зюз51091100 0.8 999573
06:00+7з61188100 0.1 1002746
09:00+8зсз61082100 0.1 1005952
12:00+13зсз6105720 0.0 10061521
15:00+17зсз610366 0.0 10061994
18:00+17в11395 0.0 100593
21:00+11юв4956100 0.0 1005132